Volver al catálogo

STARLINK-36632

ActivoComunicacionesSSO
NORAD 67581·PAYLOAD·🇺🇸 United States

Lanzado Jan 25, 2026 desde Vandenberg Space Force Base

Loading…

Próximos Pases (próximas 24 horas)

TLE

ActualizadoSource: CelesTrak SupGP

Época: Sep 15, 2026, 03:49 UTC

1 67581C 26016W   26258.15951389 -.00009703  00000+0 -30121-3 0  2584
2 67581  97.2851 316.9034 0001353  88.2988 221.8575 15.33444646    13

Sigue STARLINK-36632 en tiempo real con AllMySat

Download on the App Store